Theta_e
302 302 301 301 301 299 299 300 301 299 301 301 306 305 304 303 304 303 303 303 302 301 301 301 301 301 301 301 300 301 301 302 304 304 304 305 304 306 308 309 312 320 327 332
298 298 298 299 298 298 299 300 301 301 302 304 303 304 303 302 303 302 302 302 301 301 300 301 300 301 301 300 299 299 300 301 302 302 302 303 303 303 303 305 307 310 316 317
300 300 300 296 299 299 304 303 303 309 306 303 305 305 303 302 302 302 302 301 301 300 300 300 299 300 299 298 298 299 299 299 300 301 301 301 301 301 302 302 302 305 308 314
299 300 292 299 305 305 305 303 304 304 304 304 304 304 302 301 301 301 301 301 300 299 299 299 298 298 297 297 297 297 298 298 298 299 299 299 299 300 300 301 301 302 304 307
293 301 301 302 305 304 304 304 301 302 302 303 303 302 301 301 301 300 300 300 300 299 298 297 296 296 296 296 296 296 296 296 296 296 297 297 298 299 299 300 301 302 301 302
296 297 299 300 302 301 302 304 300 301 302 303 302 302 299 299 300 299 299 299 299 298 296 296 295 295 294 294 294 294 294 294 294 294 295 295 296 297 298 299 300 301 301 301
297 299 300 300 300 300 305 302 299 301 300 301 301 299 299 299 299 299 298 298 297 296 295 295 294 294 293 293 293 293 293 293 292 293 293 294 294 294 295 297 298 299 300 301
301 301 299 298 298 300 299 296 297 299 299 298 297 298 298 298 297 297 297 297 295 295 294 293 293 293 293 292 292 292 292 291 292 292 292 292 293 293 294 295 296 297 298 299
299 299 297 296 297 296 295 295 297 297 296 296 296 298 297 297 296 296 296 295 294 294 293 293 292 292 292 291 291 291 291 291 290 290 291 291 291 292 293 293 294 296 297 298
298 296 296 296 295 295 294 295 296 295 295 295 298 297 296 295 295 294 294 293 293 293 292 292 292 291 291 290 290 290 290 290 290 290 290 290 290 291 292 293 293 294 296 298
296 295 295 294 294 294 295 295 295 294 296 298 297 295 294 293 293 293 293 292 292 292 291 291 290 290 290 289 289 289 289 289 289 289 289 289 290 290 290 291 292 293 293 295
296 294 295 294 294 294 294 294 294 294 295 295 294 293 292 291 292 291 291 291 291 291 291 290 289 289 288 287 288 288 288 288 288 288 288 289 289 290 290 291 291 292 292 293
295 293 293 294 293 294 294 294 294 294 294 293 292 291 291 290 290 290 289 289 289 290 289 289 288 287 286 286 287 287 287 287 287 288 288 289 289 290 290 290 291 292 292 293
293 294 294 294 294 294 294 295 295 293 292 291 291 290 289 289 288 288 288 288 288 288 288 288 287 287 286 286 287 287 287 287 287 288 288 288 289 289 290 290 291 292 293 293
294 293 293 293 294 294 295 293 292 291 291 290 290 289 288 288 288 287 287 288 287 287 287 287 287 287 286 286 286 286 286 286 287 287 288 289 290 290 290 290 291 292 292 293
294 293 293 293 293 292 293 292 292 291 290 289 289 288 288 287 287 287 288 287 286 286 286 286 286 286 286 285 286 286 286 286 286 287 288 289 290 291 290 292 293 292 292 293
294 294 294 294 294 294 293 291 291 290 289 288 288 288 287 287 287 287 288 286 285 286 286 286 285 286 285 285 285 285 285 286 286 287 288 288 289 290 291 292 292 292 292 292
294 293 293 294 293 292 292 292 291 290 289 289 288 287 287 287 286 287 286 285 285 285 285 285 285 285 285 284 284 285 285 285 286 287 287 287 288 288 289 290 290 290 289 290
293 293 293 294 294 293 292 291 291 290 289 289 288 288 287 287 286 285 285 284 285 285 285 284 284 284 284 284 284 284 285 285 285 286 286 286 286 287 287 287 288 288 288 288
293 293 294 294 295 293 292 293 292 290 289 289 289 288 287 287 285 284 283 284 284 283 283 283 284 284 283 284 283 284 284 284 284 285 285 286 286 286 286 286 286 286 286 286
292 293 293 293 292 293 294 293 291 290 290 289 288 288 288 287 286 285 284 282 284 283 282 282 282 282 282 282 283 283 283 283 284 284 284 284 285 285 285 285 285 285 285 285
293 292 292 292 291 292 293 292 291 291 290 289 289 289 288 287 286 285 284 283 282 281 281 281 281 283 282 282 281 281 281 281 281 282 283 283 284 284 284 284 283 283 283 284
294 294 293 291 291 292 292 291 291 291 290 289 289 289 288 288 286 284 281 283 282 282 280 279 281 282 283 282 281 280 280 280 279 279 280 281 282 282 283 283 282 282 282 282
294 293 294 293 292 291 290 292 292 292 291 290 290 290 289 286 285 284 283 282 281 281 279 280 281 281 281 281 280 279 278 278 278 279 279 280 279 280 280 280 281 281 281 282
294 294 293 292 291 291 292 293 292 292 291 290 290 290 288 286 285 283 282 281 280 280 280 280 280 280 279 278 278 278 277 276 275 276 277 277 277 278 278 279 279 280 280 280
294 294 294 294 294 294 293 292 291 292 291 289 289 288 286 285 283 282 280 279 278 278 278 278 278 277 276 275 274 274 273 273 274 274 274 275 275 276 276 276 276 277 278 279
294 295 294 293 294 295 294 294 291 291 291 291 288 287 285 283 282 280 278 277 277 276 275 275 275 274 274 274 273 273 273 272 272 272 272 272 272 272 272 273 274 275 276 276
Wind_Speed
6 6 3 6 9 7 8 9 5 6 8 6 6 6 5 5 6 8 11 12 13 14 18 25 29 31 33 34 32 32 33 33 31 31 32 36 37 35 30 26 22 14 7 5
4 4 6 8 9 7 9 9 11 14 16 1 6 6 5 6 7 10 11 12 13 13 21 23 26 28 31 36 35 32 32 32 29 33 34 33 35 37 34 33 28 20 14 8
3 3 4 5 6 6 3 2 4 4 3 4 4 6 4 5 5 6 8 11 12 13 15 20 25 27 26 30 31 32 31 29 29 34 34 34 34 32 34 34 34 31 23 15
2 3 2 4 2 3 5 4 2 1 3 5 5 6 7 5 4 6 7 9 13 20 22 20 20 26 30 24 24 28 28 28 31 32 32 33 35 33 32 31 34 32 31 25
2 2 7 2 3 5 3 4 3 3 5 5 5 6 6 7 4 5 6 12 18 21 22 25 24 23 24 30 33 26 25 30 31 32 32 31 32 33 35 31 33 32 35 35
1 2 5 4 4 5 4 3 3 4 4 5 6 4 5 6 4 7 14 20 20 23 26 26 27 26 24 22 25 29 32 31 32 33 33 32 33 34 33 31 32 31 33 38
2 3 7 5 6 5 4 4 2 3 5 5 4 5 6 7 7 13 16 16 19 20 19 23 27 26 25 27 24 25 28 32 34 32 30 30 32 32 32 33 33 32 32 35
4 5 9 7 3 6 4 3 4 2 4 7 8 9 6 7 6 11 12 15 18 17 20 22 23 25 28 30 33 32 31 31 31 32 34 33 32 32 30 29 30 30 28 33
9 6 4 6 5 4 3 4 4 3 8 7 9 6 6 5 6 10 13 15 16 17 20 22 22 22 24 30 31 33 34 33 33 33 31 31 33 34 31 27 27 27 24 26
1 4 7 7 5 4 5 6 6 6 7 6 7 6 6 5 6 11 14 14 17 17 18 21 24 26 25 28 30 31 32 34 34 34 34 31 29 29 30 27 25 24 23 23
6 5 6 5 7 7 5 5 6 6 6 5 1 2 3 5 7 11 14 18 18 18 19 23 26 27 27 27 29 30 31 32 33 32 33 34 33 31 32 32 29 27 28 27
7 7 5 5 4 2 5 7 8 5 3 5 3 1 4 7 10 13 15 17 19 21 21 26 28 29 28 28 30 32 32 32 33 35 34 34 35 37 33 37 37 38 40 39
6 6 7 6 6 6 6 9 11 6 5 4 2 0 3 4 9 13 15 17 19 21 23 26 28 30 32 32 35 34 33 34 34 35 33 32 32 31 30 34 32 32 34 35
7 2 5 6 7 6 4 3 7 7 5 3 0 2 4 7 11 13 14 17 19 21 23 23 26 29 34 35 38 37 37 36 34 34 34 33 31 30 29 26 24 26 25 27
9 8 7 4 6 6 4 6 4 4 3 1 2 4 6 7 8 12 14 16 18 21 20 23 25 29 33 36 36 38 36 35 37 37 36 34 32 29 27 25 25 24 26 24
5 8 7 7 9 6 7 7 6 4 4 3 3 4 6 7 11 12 13 14 18 18 22 23 25 30 33 34 35 35 34 36 37 36 34 31 29 26 23 21 19 19 19 21
6 5 6 6 8 6 10 6 7 5 7 7 5 5 6 8 11 13 14 19 18 15 19 20 28 31 30 31 34 32 32 35 38 34 31 30 27 25 19 17 16 16 16 18
14 9 8 7 6 6 6 11 12 11 11 10 7 6 7 8 10 14 16 22 15 14 15 23 26 30 27 29 34 32 32 34 34 32 30 30 29 27 26 23 21 16 16 16
19 14 14 14 15 13 12 13 17 17 14 13 10 10 9 10 10 13 14 15 15 16 20 26 27 26 27 27 31 29 29 31 32 31 30 29 29 30 30 28 25 24 23 22
10 17 16 17 15 17 15 16 17 18 17 16 14 11 11 9 8 9 12 13 12 15 21 23 24 26 27 26 27 27 28 30 31 32 32 29 29 29 29 29 27 25 24 24
10 14 15 17 18 19 18 17 18 18 16 16 17 16 14 10 8 9 10 14 14 16 19 19 21 24 25 23 23 23 25 27 28 29 30 30 29 29 29 29 29 28 27 28
11 11 15 18 17 17 16 14 16 16 15 16 16 17 15 13 10 10 11 12 12 15 15 16 19 19 20 21 22 23 24 26 25 26 28 29 29 28 28 29 29 29 30 31
15 16 16 17 17 15 14 17 17 16 17 17 18 17 18 17 10 7 7 5 12 13 9 12 14 15 16 19 21 23 24 26 26 27 27 27 26 27 27 27 27 28 29 28
13 14 15 13 12 10 9 17 17 17 17 16 17 17 16 15 11 10 8 8 11 9 8 9 9 11 13 16 18 21 23 24 25 25 26 26 28 28 27 26 26 26 28 29
12 11 11 12 12 13 18 16 13 14 15 16 16 16 15 13 9 5 7 8 7 6 5 5 6 8 11 13 15 17 19 21 22 23 24 25 26 26 26 26 27 27 27 25
10 12 14 17 19 18 18 14 16 18 16 16 15 15 15 12 8 6 6 4 3 2 2 3 5 7 10 12 14 16 18 20 20 21 22 22 23 23 24 24 24 24 24 24
8 10 10 11 15 18 19 19 17 20 20 21 19 20 19 15 10 6 5 4 2 1 2 4 6 8 10 13 15 16 18 19 20 21 22 23 23 23 22 21 21 21 21 22
Wind_Direction
263 262 225 254 264 254 212 224 213 283 277 299 312 320 323 327 355 357 359 3 360 356 355 355 357 351 358 357 356 358 358 358 353 355 360 360 358 1 8 16 14 9 17 238
289 287 223 256 255 238 245 244 239 260 280 262 299 324 353 350 347 348 347 348 350 353 351 351 353 348 354 348 344 350 355 343 348 349 350 347 344 345 348 349 360 1 341 320
265 332 316 309 228 194 221 157 205 244 246 316 317 327 303 308 322 320 328 336 338 343 349 345 344 344 345 339 339 344 343 339 344 345 343 341 337 336 335 338 337 338 343 331
261 354 8 251 104 123 157 166 165 201 281 296 287 291 274 274 293 309 316 323 331 334 341 346 344 341 335 333 339 338 336 333 339 335 332 330 326 326 330 330 326 322 320 321
119 255 292 233 182 165 172 226 205 239 261 281 293 315 285 278 284 304 312 316 318 329 337 337 342 345 337 336 335 335 333 332 329 328 322 323 321 320 321 322 316 312 310 308
154 138 238 234 163 135 111 259 201 261 291 300 331 314 271 289 323 314 329 324 326 339 334 333 337 340 337 333 327 327 327 326 324 322 318 320 314 312 313 310 303 305 304 300
178 241 282 238 166 131 153 219 239 215 246 266 247 234 270 313 309 328 326 329 334 335 327 324 329 332 329 328 324 320 317 318 319 318 314 310 308 306 305 304 301 299 299 297
176 209 259 157 95 177 193 201 214 273 248 270 278 285 285 299 305 319 321 329 331 326 323 325 327 329 325 323 323 322 321 317 315 313 312 309 306 303 300 295 294 291 294 293
188 214 222 199 177 196 136 219 252 260 276 257 272 265 292 289 312 316 319 319 321 320 318 321 324 326 316 311 315 317 317 314 312 309 308 305 303 300 296 293 285 287 286 286
151 210 208 225 265 235 224 216 224 241 275 263 249 287 297 317 321 319 323 325 327 325 321 318 321 319 312 314 318 316 315 314 312 309 306 302 296 290 290 287 283 279 281 284
258 270 290 239 217 231 230 230 252 263 255 240 240 320 305 307 311 317 323 326 325 324 321 315 318 316 316 322 325 320 315 312 310 307 303 300 293 289 285 282 278 281 281 281
239 196 197 232 229 271 275 268 267 272 278 140 127 337 317 311 314 328 327 324 324 324 320 318 320 320 322 325 328 324 319 317 313 307 303 298 295 293 284 279 278 275 272 270
238 186 200 230 262 237 241 258 261 230 150 145 126 334 309 300 324 332 330 327 324 320 320 318 320 323 327 329 331 326 320 316 312 307 301 295 289 285 288 289 282 276 274 275
227 206 270 222 251 260 244 263 154 145 140 142 347 354 343 343 340 335 329 325 323 323 321 323 325 326 331 331 329 327 324 321 317 311 305 298 289 281 277 276 281 280 271 270
225 197 214 228 217 238 183 167 182 186 173 206 326 329 335 332 329 330 326 327 326 323 324 326 329 329 333 332 330 329 328 326 322 319 314 307 299 284 274 271 271 273 283 280
216 201 221 217 241 225 195 200 211 215 190 214 233 282 305 316 321 323 329 334 333 323 330 331 331 331 332 334 334 333 332 329 328 326 322 319 315 302 284 278 276 275 275 272
204 215 199 234 226 210 205 195 201 200 195 202 229 261 298 303 311 320 326 336 341 326 329 334 328 333 335 338 340 337 338 337 337 334 334 339 339 339 311 292 286 278 280 285
214 211 191 194 190 191 197 203 208 202 198 208 221 242 265 282 301 327 334 339 340 340 343 341 340 340 339 344 347 344 346 346 343 343 347 353 357 4 14 18 17 16 22 41
208 214 211 210 216 207 203 193 208 209 204 205 216 237 261 285 309 322 332 339 337 336 337 347 348 344 344 348 354 350 352 354 354 353 359 3 11 18 21 22 23 26 28 31
194 205 205 215 222 208 195 206 210 205 209 209 224 242 255 275 313 330 324 321 330 326 330 339 348 353 351 348 358 356 359 2 4 1 3 8 16 21 25 26 28 29 32 35
188 181 184 187 191 196 199 201 198 207 216 220 224 236 252 273 291 308 311 315 333 333 343 342 349 356 356 356 358 3 5 2 11 6 9 10 14 21 27 30 30 30 33 37
166 172 182 181 181 194 202 204 212 223 228 229 233 241 250 251 268 279 301 295 316 330 344 344 354 4 15 17 22 26 27 26 16 11 13 15 17 20 24 28 31 31 33 35
169 178 181 184 189 200 203 213 219 227 236 238 239 243 243 252 263 267 301 318 319 328 336 344 356 3 21 27 30 31 33 36 35 30 27 21 15 21 25 28 31 33 34 36
172 181 189 194 194 193 205 223 227 238 247 251 251 250 245 230 248 271 274 302 313 324 334 349 1 10 25 31 34 36 35 35 38 39 39 41 40 40 32 24 22 25 33 40
180 186 181 177 185 214 231 239 233 240 242 244 243 245 224 226 243 260 271 294 303 317 327 345 356 13 28 35 36 37 37 35 36 38 40 39 38 37 39 41 41 39 39 38
179 196 205 208 216 228 236 239 232 240 231 232 234 222 214 219 228 244 260 268 280 301 344 13 25 32 39 44 46 44 42 38 37 37 38 36 35 35 34 33 33 34 33 32
218 216 218 225 232 238 243 243 237 240 234 230 227 216 213 209 209 217 225 212 188 138 93 69 63 61 59 57 56 53 50 47 44 41 39 39 36 33 30 27 26 24 24 24